Flag Weather past 2 weeks in Tucson, Arizona, U.S.A.

Now
73 °F

Sunny.


Feels Like: 77 °F
Forecast: 58 / 89 °F
Wind: 13 mph from Southeast

Location: Davis-Monthan Air Force Base

Current Time: Oct 30, 2014 at 9:40:51 AM

Latest Report: Oct 30, 2014 at 8:58 AM


Visibility: 10 mi

Pressure: 30.00 "Hg

Humidity: 32%

Dew point: 41 °F

Location of TucsonLocation

Historic Weather in Tucson — Graph

°F

Tucson temperature yesterday

Maximum temperature yesterday: 85 °F (at 3:58 PM)
Minimum temperature yesterday: 55 °F (at 6:58 AM)
Average temperature yesterday: 70 °F

Past Weeks' High & Low Weather Summary

 TemperatureHumidityPressure
High94 °F (Oct 25, 2:58 PM)74% (Oct 28, 5:58 AM)30.09 "Hg (Oct 28, 5:58 AM)
Low55 °F (Oct 29, 6:58 AM)16% (Oct 28, 4:58 PM)29.70 "Hg (Oct 18, 3:58 PM)
Average73 °F43%29.88 "Hg
* Reported Oct 15 7:58 AM — Oct 30 7:58 AM, Tucson, Weather by CustomWeather, © 2014

Note: Actual official high and low records may vary slightly from our data, if they occured in-between our weather recording intervals... More about our weather records

Advertising

Tucson weather history for previous 24 hours

 ConditionsComfort  
Time TempWeatherWind HumidityBarometerVisibility
7:58 AM
Oct 30
65 °FSunny.6 mph40%30.00 "Hg10 mi
6:58 AM62 °FSunny.10 mph44%29.99 "Hg10 mi
5:58 AM58 °FClear.8 mph50%29.97 "Hg10 mi
4:58 AM59 °FClear.3 mph49%29.96 "Hg10 mi
3:58 AM57 °FClear.9 mph53%29.96 "Hg10 mi
2:58 AM58 °FClear.10 mph51%29.95 "Hg10 mi
1:58 AM60 °FClear.7 mph50%29.97 "Hg10 mi
12:58 AM61 °FClear.12 mph48%29.97 "Hg10 mi
11:58 PM
Oct 29
62 °FClear.6 mph48%29.97 "Hg10 mi
10:58 PM63 °FClear.8 mph47%29.98 "Hg10 mi
9:58 PM66 °FClear.8 mph43%29.97 "Hg10 mi
8:58 PM69 °FClear.3 mph40%29.97 "Hg10 mi
7:58 PM73 °FClear.7 mph34%29.95 "Hg10 mi
6:58 PM75 °FClear.12 mph30%29.94 "Hg8 mi
5:58 PM79 °FClear.10 mph26%29.93 "Hg6 mi
4:58 PM84 °FSunny.6 mph18%29.91 "Hg6 mi
3:58 PM85 °FSunny.8 mph19%29.91 "Hg6 mi
2:58 PM85 °FSunny.6 mph19%29.91 "Hg10 mi
1:58 PM84 °FSunny.6 mph21%29.92 "Hg10 mi
12:58 PM83 °FSunny.5 mph24%29.94 "Hg10 mi
11:58 AM81 °FSunny.5 mph27%29.97 "Hg10 mi
10:58 AM77 °FSunny.1 mph32%30.01 "Hg10 mi
9:58 AM73 °FSunny.No wind35%30.02 "Hg10 mi
Weather by CustomWeather, © 2014

See weather overviewHow to use our weather pages